Wind_Speed
43 44 41 36 35 30 31 36 36 36 31 33 39 37 35 33 31 32 33 29 32 17 17 13 14 17 14 6 6 6 7 3 3 5 3 3 3 1 0 5 8 10 8 4 5 6 8 9 3 7 7 3 12 16
37 40 37 35 32 31 30 29 33 30 32 31 37 36 33 31 29 31 28 29 28 22 9 8 15 26 35 31 14 22 8 7 10 3 3 3 3 3 3 3 3 2 6 5 7 6 6 5 4 6 10 16 12 19
33 33 33 31 31 26 27 27 29 30 30 31 35 33 30 30 29 31 31 26 26 20 19 27 22 21 25 18 8 5 8 11 10 8 5 3 2 3 3 4 1 3 5 4 3 4 5 12 11 14 13 13 11 10
28 28 25 26 27 26 24 26 28 29 31 33 32 30 30 28 28 30 30 26 27 8 4 9 6 16 3 10 9 9 16 18 20 13 4 2 2 6 3 2 4 6 5 4 2 3 2 4 13 13 15 13 11 10
24 24 24 24 23 24 26 28 29 30 30 30 28 28 27 26 27 27 26 26 25 18 4 5 13 12 4 10 4 9 19 24 16 4 3 3 2 3 1 2 3 3 4 4 4 8 7 9 13 13 15 15 14 16
27 24 24 21 29 29 30 31 30 28 26 25 25 25 25 25 26 24 16 25 30 31 7 3 7 16 14 10 14 16 16 15 6 5 2 2 2 4 3 4 5 19 12 13 6 6 8 8 15 17 18 15 14 15
28 24 31 31 32 32 30 28 25 23 22 22 22 22 24 26 28 31 10 6 36 32 6 2 2 12 18 14 10 10 10 5 4 4 2 3 3 5 2 4 6 15 18 11 8 8 13 15 17 18 17 18 17 15
39 37 35 33 31 30 27 26 23 20 18 17 17 19 23 28 28 35 33 14 35 26 3 1 2 4 14 5 3 2 4 3 4 4 4 3 2 2 4 11 18 21 23 22 21 17 17 17 18 20 19 17 15 14
34 33 32 30 29 28 25 23 20 17 15 10 10 13 12 12 13 20 25 30 38 8 3 5 4 4 10 5 5 3 2 2 1 1 2 4 2 4 9 13 24 26 28 27 31 30 22 12 16 22 22 20 16 16
30 30 29 29 28 25 24 21 17 25 18 9 2 7 5 12 38 35 14 11 13 8 6 2 5 2 8 3 2 5 1 2 0 4 3 2 4 24 24 28 26 26 28 23 13 14 17 22 21 23 26 23 19 15
27 26 25 24 24 23 24 26 20 13 12 7 8 8 18 20 9 5 4 3 3 2 2 3 6 4 6 3 3 3 2 1 0 3 3 2 4 6 19 31 35 30 25 24 23 24 17 19 21 25 24 21 18 14
24 23 22 21 22 21 22 16 14 12 7 8 10 8 6 5 6 5 2 2 2 3 2 4 7 7 6 4 3 2 2 1 3 3 1 3 3 11 13 11 18 27 24 21 15 13 10 6 16 26 23 19 15 11
25 23 23 22 23 23 18 10 15 22 7 7 6 5 6 4 6 4 2 2 1 1 6 8 2 5 4 3 4 3 3 4 1 2 3 3 5 9 8 6 2 19 21 18 14 11 13 19 17 17 18 16 14 12
22 21 21 20 19 14 11 13 12 13 9 6 3 5 2 4 1 3 4 4 3 3 14 18 4 3 3 3 3 4 4 2 2 3 5 2 2 3 5 8 10 15 18 20 20 20 18 18 16 15 14 13 10 9
25 24 20 19 15 10 6 3 5 11 6 5 4 2 2 2 5 5 5 3 2 6 18 7 3 1 1 3 1 2 2 3 5 4 2 9 7 2 3 9 14 18 18 17 16 13 13 13 14 14 12 11 9 9
14 15 15 14 14 12 8 4 5 7 5 3 3 3 4 3 3 5 6 5 3 4 12 6 2 3 2 3 3 6 5 5 4 2 4 11 7 4 6 7 8 10 10 9 9 10 11 11 9 9 9 8 9 9
9 6 9 12 12 11 6 4 1 1 3 3 0 3 3 4 5 4 4 3 2 2 2 3 4 7 1 1 3 4 5 3 5 7 8 7 8 9 9 10 9 9 8 8 9 8 8 7 8 8 9 9 10 9
10 10 13 16 15 14 6 1 1 2 3 5 2 2 3 5 4 5 4 5 3 3 4 3 2 3 4 4 3 3 3 6 5 7 8 8 9 10 11 12 11 11 10 8 7 6 5 5 5 8 9 10 10 9
8 10 13 18 18 12 3 1 2 2 3 2 4 5 4 4 6 7 7 8 7 8 4 4 3 3 3 3 3 7 10 11 10 9 9 8 10 11 12 12 11 11 9 10 10 8 7 6 4 3 6 9 9 9
20 19 18 14 10 5 3 3 3 4 3 3 4 5 4 5 5 4 8 7 6 4 3 3 3 5 2 4 5 9 12 12 14 11 11 12 12 12 12 13 11 8 9 9 8 8 10 9 7 6 6 6 7 7
15 13 7 5 5 4 4 3 4 4 3 4 4 5 5 5 5 5 4 8 9 4 2 7 8 10 9 9 7 6 10 13 14 11 14 16 15 15 13 12 10 8 6 9 9 8 10 10 7 8 7 5 7 5
4 4 3 3 3 3 4 3 5 7 4 3 3 3 4 2 3 3 4 5 4 6 8 9 11 11 11 12 9 8 9 12 11 9 10 11 17 17 16 14 12 11 7 9 9 11 9 9 8 8 7 8 8 8
5 3 3 2 2 2 4 3 3 3 1 2 1 2 2 2 2 2 2 5 6 8 12 11 12 11 12 11 9 9 9 9 10 11 11 13 12 13 14 14 11 11 11 10 9 10 10 10 10 9 8 10 11 11
3 2 2 2 3 3 4 3 3 3 3 1 1 3 2 2 2 2 3 3 4 8 13 14 14 15 14 12 11 10 10 10 10 10 11 12 13 13 12 11 13 12 10 9 9 9 10 11 11 11 10 10 12 13
1 2 1 3 1 1 1 2 2 2 2 2 1 3 3 2 0 2 3 1 2 8 12 14 15 16 17 13 12 11 9 10 10 11 11 11 12 13 12 11 12 10 10 10 12 10 9 10 12 12 11 12 13 14
1 1 2 3 2 2 2 2 1 2 1 2 3 3 2 1 2 4 1 5 3 4 7 13 15 14 11 11 14 14 11 9 10 12 13 12 12 13 13 14 12 11 10 11 12 12 11 11 10 10 11 12 11 12
1 3 1 1 2 2 4 4 4 2 2 3 3 1 1 2 4 1 2 7 6 5 7 12 17 15 13 13 13 10 9 9 9 10 12 10 11 11 11 12 11 9 10 8 11 12 11 10 10 10 11 12 12 13
1 2 2 4 2 1 2 2 2 3 3 2 1 1 3 4 3 2 2 10 11 8 7 7 11 14 12 14 15 14 13 12 12 12 14 13 12 12 13 13 13 12 15 13 11 9 9 8 8 10 11 11 10 11
2 1 1 3 2 2 4 5 4 3 1 1 3 3 3 3 4 8 14 14 14 11 8 8 11 11 13 15 16 15 12 12 14 16 16 15 13 13 14 17 15 13 14 14 13 12 11 11 9 6 7 9 9 8
1 0 2 2 3 4 6 7 5 9 10 11 9 13 20 26 29 28 25 20 16 12 9 10 8 16 19 20 19 14 9 11 15 13 13 12 10 8 6 6 10 14 15 14 13 14 13 13 13 12 10 10 9 9
3 2 3 4 4 7 12 12 13 16 20 23 22 20 22 20 23 19 16 14 16 14 14 14 14 12 16 19 15 12 11 10 13 14 12 9 11 11 9 7 7 9 11 11 9 8 14 14 14 13 13 12 10 11
3 4 3 3 5 12 14 14 8 4 5 5 6 10 9 6 5 6 8 7 9 10 15 16 15 14 12 9 8 9 7 7 11 14 13 12 9 9 9 8 8 8 9 10 10 9 12 12 14 14 14 12 11 11
4 11 14 7 5 4 4 2 3 4 5 4 5 7 11 5 5 4 6 7 6 5 10 15 14 12 13 11 9 11 11 8 5 6 7 7 6 6 6 6 7 9 12 12 10 12 13 12 13 13 13 13 13 12
Wind_Direction
241 237 235 231 231 231 229 229 228 229 229 214 215 204 209 208 207 211 220 218 212 230 251 251 258 236 260 247 215 169 143 172 145 196 194 237 176 164 165 185 169 176 170 187 189 216 253 229 300 208 223 171 161 163
229 224 225 224 222 223 224 222 218 223 210 208 203 200 204 203 204 207 217 220 219 228 244 245 266 258 266 274 246 185 178 144 167 157 188 137 202 125 346 216 133 157 183 173 184 205 225 283 222 242 229 173 157 151
207 206 210 210 210 214 216 210 206 204 192 200 193 195 198 197 201 204 209 213 209 226 259 263 250 264 265 217 248 162 188 149 170 146 152 174 135 128 160 238 111 291 175 174 113 235 216 207 164 137 136 142 147 162
176 184 193 189 195 202 201 189 187 178 184 184 187 191 193 196 200 202 203 209 204 186 226 270 246 240 239 205 247 231 190 153 140 134 80 109 143 196 196 254 200 204 149 179 248 286 265 230 189 166 148 150 156 170
152 160 163 171 184 181 170 168 167 171 175 180 185 188 191 195 198 199 210 214 211 201 226 214 211 203 181 166 140 129 162 146 133 101 100 180 177 128 167 2 265 207 176 151 221 216 217 224 199 202 197 210 222 220
127 137 144 157 144 152 154 156 159 164 170 174 179 187 191 195 189 187 211 225 212 209 261 176 153 171 152 161 152 149 144 131 103 119 170 188 206 142 154 203 233 217 218 216 189 193 241 245 196 190 188 187 192 200
121 123 132 133 136 139 143 146 149 155 163 173 185 190 194 192 198 192 192 216 203 197 257 168 87 143 140 130 115 113 122 118 113 134 152 175 212 170 125 213 210 206 218 223 236 254 236 208 200 196 200 192 202 216
104 110 118 125 128 130 133 138 143 149 160 175 190 204 212 211 219 227 220 263 192 194 242 69 98 118 166 134 105 131 112 137 157 155 149 169 224 117 239 237 246 241 256 266 253 252 253 229 209 199 197 203 207 205
102 108 113 118 122 126 129 130 135 148 170 186 150 142 115 174 164 168 197 175 178 186 196 184 144 176 156 116 106 89 76 51 23 87 239 148 215 220 230 218 219 228 222 235 239 239 237 235 214 203 200 201 206 208
99 104 110 115 119 122 125 128 128 118 111 50 100 170 170 127 136 143 125 152 172 227 231 112 115 124 142 118 100 148 150 143 196 232 161 171 252 247 253 246 247 239 232 230 233 236 230 225 213 201 200 208 208 211
96 101 106 111 115 116 114 113 98 54 39 28 57 69 73 106 137 139 91 122 219 48 80 105 143 136 140 108 153 164 166 218 2 271 132 252 264 256 274 253 245 239 236 239 248 253 254 238 228 205 192 190 199 205
90 95 101 105 110 112 113 100 40 42 58 78 108 69 44 48 58 74 2 15 73 187 150 114 134 102 115 134 100 105 141 104 249 142 167 250 266 359 358 327 254 232 231 237 225 240 228 240 221 188 187 189 195 203
90 95 95 101 108 111 108 63 93 98 54 32 23 30 15 354 58 109 174 313 16 169 160 146 125 126 117 121 79 111 146 217 119 184 233 238 317 2 15 21 54 200 200 197 189 193 180 162 174 185 176 174 178 184
81 87 105 106 120 110 59 114 133 28 17 13 23 9 94 337 307 188 176 187 202 194 162 156 115 134 137 106 142 135 218 172 259 225 231 202 178 2 45 76 114 137 158 160 151 147 145 146 157 163 167 172 186 195
57 69 73 83 103 94 73 86 5 348 356 5 6 356 357 328 34 16 359 352 92 162 158 131 104 129 71 102 180 110 109 234 216 234 218 169 147 123 120 120 120 123 127 128 128 134 138 155 168 170 176 186 196 208
23 55 46 22 18 24 24 337 337 355 345 348 9 46 14 47 326 334 346 316 1 132 136 132 113 65 260 163 143 210 179 217 240 207 189 155 145 166 150 149 158 152 145 143 154 160 162 166 171 177 175 177 177 178
68 53 27 3 360 347 332 297 306 310 308 331 177 229 236 240 231 220 233 251 217 243 167 125 143 199 116 190 220 191 204 213 180 154 178 197 193 189 181 173 171 166 165 158 151 146 146 148 161 164 164 163 163 166
40 19 6 358 352 333 313 336 278 251 255 244 267 211 241 251 228 240 253 242 219 210 170 195 171 172 202 199 237 201 175 146 163 185 194 191 185 193 176 167 159 154 152 150 146 143 145 151 147 165 169 168 167 169
319 334 338 341 340 339 335 267 249 257 264 264 251 269 242 253 241 246 256 246 240 238 195 165 183 234 224 220 189 163 190 182 175 181 190 199 184 176 167 166 162 157 160 161 165 171 174 177 174 187 182 187 187 188
276 292 310 325 331 318 301 254 241 258 260 248 260 275 290 260 241 240 263 247 225 215 208 198 218 163 218 208 194 200 183 183 180 164 180 190 196 201 186 179 175 172 170 174 173 186 185 187 193 191 196 209 204 203
276 285 281 303 307 241 250 266 247 246 275 243 256 262 291 280 251 235 226 206 197 221 218 225 201 205 207 200 208 202 190 190 190 195 196 189 197 200 194 190 193 199 213 184 182 184 190 192 198 201 205 205 182 180
232 216 269 255 248 260 273 245 273 305 272 278 223 211 265 279 245 229 192 232 238 212 213 202 192 194 208 210 212 203 205 201 205 208 205 205 193 191 198 198 198 203 197 195 198 202 195 193 197 203 212 209 208 213
172 205 233 241 254 253 260 289 253 248 231 268 283 286 261 242 241 219 258 228 236 223 216 215 206 209 201 193 192 193 195 214 213 210 205 203 200 200 203 201 209 209 196 197 204 207 209 211 214 220 227 229 219 219
179 238 243 230 218 254 319 310 285 280 307 318 237 275 270 242 188 242 255 246 224 202 196 194 187 178 183 188 193 202 205 207 206 204 200 194 195 199 202 211 206 199 211 212 204 211 219 220 222 228 242 231 220 220
247 269 280 313 208 12 310 289 288 335 290 258 288 301 296 319 295 253 236 354 203 199 195 195 198 204 195 199 198 200 195 201 204 198 194 204 196 187 187 195 191 203 213 215 213 218 222 220 225 236 241 218 224 225
87 248 115 209 288 110 259 271 275 262 247 288 262 299 301 48 287 255 19 11 37 215 228 217 214 203 208 215 199 200 200 209 205 207 195 199 204 202 196 197 205 219 223 220 221 225 222 220 230 231 223 221 226 220
16 299 286 246 322 335 335 308 256 144 257 239 262 354 17 264 255 272 357 342 316 292 266 250 237 226 220 211 208 205 200 204 202 200 196 204 207 208 217 218 216 220 216 222 207 209 216 220 225 227 221 224 226 223
232 36 131 322 329 322 188 304 254 231 239 259 55 333 209 214 248 230 355 349 343 312 289 279 244 224 231 219 203 203 200 202 204 209 207 204 210 218 223 225 223 225 225 221 206 206 210 218 232 226 219 223 224 218
254 201 344 303 272 262 230 201 235 247 192 294 158 263 261 260 258 299 319 321 324 322 254 259 252 232 215 206 201 201 209 220 214 202 208 216 226 238 241 238 232 212 205 211 214 217 226 220 216 227 223 211 216 229
348 334 299 286 175 241 238 220 251 267 271 269 265 271 276 276 282 285 290 293 288 291 274 228 235 212 200 194 191 199 224 217 210 219 230 239 246 243 241 221 207 202 209 215 223 220 214 213 208 209 209 205 212 198
281 240 255 244 261 275 269 272 271 297 292 277 278 267 271 287 300 298 287 285 272 265 236 222 225 226 218 207 206 221 223 226 226 229 238 248 237 234 229 232 223 209 202 199 218 218 198 199 208 210 205 204 199 195
249 232 218 267 278 303 286 282 285 255 272 263 259 255 270 253 258 276 287 279 257 241 218 210 222 223 227 229 233 231 228 226 241 231 229 223 227 229 229 234 230 217 191 197 210 206 191 202 207 202 198 196 190 187
267 290 286 282 302 304 304 277 316 281 248 258 267 277 248 249 253 284 291 280 272 253 227 221 226 236 232 234 243 230 217 225 222 193 186 202 216 222 226 223 214 199 193 205 206 191 198 200 197 196 195 189 185 186
Height
1255 1266 1275 1284 1291 1298 1304 1311 1318 1325 1331 1338 1346 1356 1366 1374 1382 1388 1391 1397 1401 1401 1401 1400 1400 1401 1400 1397 1397 1396 1405 1409 1413 1417 1413 1412 1411 1412 1414 1409 1414 1416 1424 1430 1436 1435 1432 1413 1416 1420 1418 1410 1410 1413
1238 1251 1263 1273 1282 1290 1297 1302 1310 1317 1324 1333 1341 1351 1361 1369 1376 1383 1387 1391 1396 1399 1396 1394 1392 1393 1395 1393 1390 1389 1388 1394 1402 1407 1412 1414 1416 1415 1417 1414 1406 1419 1412 1421 1420 1418 1411 1410 1409 1408 1410 1411 1414 1416
1227 1243 1255 1265 1275 1283 1290 1295 1304 1311 1320 1329 1338 1348 1357 1364 1371 1376 1381 1387 1392 1393 1393 1391 1385 1387 1385 1385 1383 1384 1386 1387 1391 1394 1403 1408 1409 1409 1416 1414 1409 1408 1408 1411 1413 1408 1408 1409 1409 1408 1409 1411 1415 1417
1226 1241 1251 1261 1271 1279 1285 1293 1301 1310 1319 1328 1338 1346 1354 1361 1368 1373 1376 1381 1387 1390 1389 1381 1377 1378 1377 1380 1383 1378 1377 1381 1387 1392 1395 1401 1406 1407 1411 1407 1406 1404 1405 1407 1407 1405 1406 1406 1408 1409 1410 1411 1413 1416
1234 1244 1253 1262 1270 1277 1285 1294 1303 1311 1320 1329 1337 1345 1352 1358 1365 1371 1374 1377 1382 1387 1379 1376 1377 1378 1378 1379 1378 1380 1380 1381 1385 1391 1396 1402 1401 1405 1406 1408 1406 1399 1400 1406 1408 1400 1401 1402 1404 1406 1408 1409 1410 1411
1243 1251 1259 1265 1273 1282 1290 1298 1307 1315 1323 1331 1338 1344 1350 1356 1363 1366 1372 1372 1375 1380 1376 1370 1374 1375 1379 1384 1383 1381 1381 1382 1385 1390 1395 1396 1397 1400 1407 1405 1390 1390 1391 1393 1395 1397 1400 1400 1401 1401 1403 1404 1406 1408
1256 1261 1268 1275 1283 1290 1298 1306 1314 1321 1327 1333 1338 1343 1348 1353 1356 1358 1360 1362 1367 1374 1370 1366 1370 1376 1378 1382 1384 1384 1384 1386 1388 1391 1394 1397 1397 1398 1404 1403 1381 1385 1387 1390 1393 1395 1396 1396 1396 1399 1400 1402 1405 1406
1270 1275 1281 1288 1295 1301 1307 1313 1319 1325 1329 1334 1337 1341 1344 1350 1357 1356 1354 1359 1367 1374 1371 1369 1373 1377 1380 1382 1385 1386 1386 1389 1391 1392 1395 1396 1397 1397 1399 1378 1381 1384 1385 1385 1386 1389 1389 1390 1392 1394 1396 1398 1400 1401
1290 1293 1297 1302 1305 1310 1314 1319 1324 1328 1330 1331 1332 1334 1336 1340 1344 1346 1353 1360 1366 1372 1368 1369 1371 1377 1376 1380 1384 1387 1387 1392 1390 1391 1392 1393 1393 1390 1373 1372 1370 1374 1374 1374 1377 1381 1384 1384 1386 1389 1391 1393 1395 1398
1306 1308 1310 1312 1315 1319 1322 1325 1329 1329 1331 1330 1331 1335 1328 1331 1342 1347 1355 1359 1365 1367 1363 1362 1364 1369 1373 1377 1385 1387 1388 1387 1390 1389 1386 1388 1382 1366 1365 1363 1363 1364 1366 1369 1371 1375 1376 1378 1381 1384 1386 1388 1392 1394
1319 1320 1321 1324 1325 1328 1330 1333 1336 1336 1333 1332 1332 1334 1336 1339 1343 1349 1352 1357 1359 1359 1358 1361 1364 1368 1372 1378 1383 1384 1388 1388 1388 1387 1389 1385 1376 1364 1359 1356 1355 1359 1362 1366 1369 1371 1372 1373 1376 1380 1383 1385 1388 1390
1330 1331 1332 1333 1335 1337 1339 1340 1340 1339 1339 1339 1339 1341 1341 1343 1346 1351 1359 1358 1359 1361 1359 1361 1364 1366 1371 1374 1378 1384 1386 1387 1388 1385 1386 1380 1366 1358 1355 1349 1348 1353 1359 1363 1366 1366 1367 1367 1372 1375 1378 1382 1385 1388
1340 1341 1342 1343 1344 1345 1346 1346 1345 1344 1344 1344 1344 1343 1345 1350 1358 1363 1369 1360 1363 1354 1356 1359 1366 1366 1371 1372 1378 1383 1385 1386 1384 1384 1380 1369 1363 1360 1357 1352 1347 1350 1355 1359 1362 1364 1365 1367 1374 1377 1378 1381 1384 1387
1351 1351 1350 1351 1352 1353 1353 1352 1351 1350 1349 1349 1349 1356 1355 1361 1355 1355 1355 1355 1353 1354 1355 1359 1364 1367 1371 1374 1378 1386 1384 1381 1387 1385 1367 1360 1361 1362 1359 1356 1353 1354 1356 1358 1361 1365 1366 1369 1374 1377 1379 1381 1383 1385
1360 1359 1359 1359 1359 1359 1358 1358 1357 1355 1354 1354 1353 1361 1358 1355 1354 1354 1354 1353 1354 1355 1356 1362 1365 1367 1371 1376 1375 1379 1382 1381 1375 1364 1359 1359 1360 1362 1362 1361 1360 1360 1362 1364 1366 1368 1369 1372 1375 1377 1379 1380 1382 1384
1366 1365 1364 1363 1361 1361 1360 1360 1359 1358 1357 1357 1358 1359 1357 1358 1358 1357 1357 1356 1356 1357 1359 1362 1367 1372 1374 1372 1373 1377 1372 1370 1364 1358 1358 1358 1360 1363 1364 1364 1364 1364 1366 1367 1369 1370 1371 1373 1374 1376 1377 1379 1381 1383
1370 1369 1368 1368 1366 1363 1361 1360 1360 1360 1360 1359 1359 1358 1358 1359 1359 1359 1359 1359 1359 1359 1361 1362 1368 1365 1366 1370 1367 1363 1364 1358 1355 1356 1358 1360 1361 1363 1364 1365 1366 1366 1367 1369 1370 1371 1372 1373 1375 1376 1378 1380 1382 1384
1371 1370 1369 1368 1366 1363 1361 1361 1361 1360 1358 1357 1357 1356 1356 1356 1356 1357 1357 1357 1358 1358 1358 1359 1359 1361 1366 1359 1358 1353 1353 1353 1354 1357 1358 1359 1360 1362 1364 1365 1366 1367 1368 1370 1371 1373 1375 1376 1377 1378 1380 1382 1383 1385
1371 1370 1369 1368 1365 1363 1361 1361 1361 1359 1356 1355 1354 1354 1354 1353 1353 1354 1354 1354 1355 1356 1356 1356 1356 1352 1352 1349 1348 1348 1351 1353 1354 1356 1358 1360 1361 1363 1364 1366 1367 1368 1369 1371 1373 1374 1376 1378 1379 1380 1381 1382 1384 1386
1368 1368 1368 1366 1365 1363 1362 1360 1360 1357 1355 1353 1352 1351 1350 1351 1350 1351 1351 1351 1352 1352 1349 1350 1348 1345 1347 1347 1347 1347 1348 1351 1352 1355 1357 1359 1361 1363 1364 1365 1367 1368 1370 1371 1373 1374 1376 1378 1379 1380 1381 1383 1384 1385
1363 1363 1364 1364 1363 1362 1360 1357 1356 1355 1353 1352 1350 1350 1349 1348 1347 1347 1347 1348 1349 1346 1344 1343 1342 1344 1345 1346 1347 1347 1348 1349 1350 1352 1354 1356 1359 1361 1363 1365 1366 1368 1369 1370 1372 1374 1375 1377 1379 1380 1381 1382 1384 1386
1361 1361 1361 1360 1360 1359 1357 1356 1355 1354 1353 1350 1349 1349 1348 1346 1344 1344 1344 1344 1340 1339 1339 1339 1339 1341 1342 1344 1345 1346 1348 1349 1350 1352 1353 1355 1356 1358 1361 1363 1365 1366 1368 1369 1371 1372 1374 1376 1378 1379 1381 1382 1384 1386
1360 1360 1360 1359 1359 1358 1357 1355 1354 1351 1351 1348 1348 1347 1345 1344 1343 1343 1342 1339 1336 1335 1335 1336 1337 1340 1342 1343 1344 1346 1347 1348 1349 1350 1351 1353 1355 1357 1359 1361 1363 1365 1367 1369 1370 1372 1373 1375 1377 1378 1380 1381 1383 1384
1359 1359 1358 1357 1358 1358 1356 1354 1352 1351 1348 1348 1347 1346 1343 1341 1342 1341 1339 1333 1332 1332 1333 1335 1337 1339 1342 1343 1344 1345 1346 1347 1348 1349 1351 1352 1354 1356 1358 1360 1362 1364 1366 1367 1369 1371 1372 1374 1375 1377 1378 1379 1381 1383
1360 1359 1359 1358 1356 1357 1356 1354 1353 1352 1353 1350 1347 1347 1343 1342 1343 1341 1334 1333 1332 1333 1334 1335 1337 1338 1339 1341 1342 1344 1345 1346 1347 1348 1350 1352 1354 1356 1358 1359 1361 1363 1365 1366 1368 1369 1371 1372 1374 1375 1376 1378 1379 1381
1362 1358 1359 1357 1357 1359 1357 1356 1357 1353 1352 1351 1348 1343 1343 1344 1343 1339 1334 1334 1334 1335 1335 1336 1336 1337 1338 1339 1341 1342 1344 1345 1347 1348 1350 1351 1353 1355 1356 1358 1360 1362 1363 1365 1366 1368 1369 1371 1372 1373 1374 1376 1377 1378
1362 1360 1357 1357 1357 1356 1357 1354 1352 1353 1352 1354 1349 1347 1346 1346 1347 1338 1337 1336 1335 1334 1334 1334 1335 1335 1337 1338 1340 1342 1344 1345 1346 1348 1349 1351 1352 1354 1356 1357 1359 1361 1362 1363 1364 1365 1367 1368 1370 1371 1372 1373 1375 1376
1357 1357 1360 1358 1357 1357 1358 1357 1356 1354 1350 1346 1346 1350 1346 1345 1341 1337 1336 1336 1334 1333 1332 1331 1332 1334 1335 1336 1338 1340 1342 1344 1346 1347 1349 1350 1351 1353 1354 1356 1357 1358 1360 1361 1363 1364 1366 1367 1368 1369 1370 1371 1373 1374
1357 1357 1358 1357 1356 1355 1353 1353 1351 1346 1346 1346 1348 1346 1340 1337 1336 1335 1335 1334 1333 1331 1331 1330 1330 1332 1333 1335 1337 1339 1341 1342 1344 1345 1347 1348 1350 1351 1352 1352 1354 1356 1358 1359 1361 1362 1364 1365 1367 1368 1369 1370 1372 1373
1358 1359 1359 1357 1357 1355 1348 1347 1345 1344 1344 1344 1343 1340 1337 1334 1333 1331 1330 1329 1329 1329 1328 1329 1329 1330 1331 1333 1335 1337 1339 1340 1342 1344 1345 1346 1347 1349 1349 1349 1351 1352 1355 1356 1358 1359 1361 1363 1365 1366 1368 1369 1371 1372
1359 1358 1358 1356 1353 1347 1345 1344 1342 1341 1340 1337 1336 1335 1331 1329 1325 1323 1322 1322 1323 1324 1324 1326 1327 1329 1331 1332 1334 1336 1337 1339 1340 1342 1343 1344 1345 1347 1348 1349 1349 1350 1352 1354 1356 1356 1358 1361 1363 1365 1367 1369 1370 1372
1357 1356 1356 1355 1348 1345 1344 1342 1339 1337 1334 1332 1330 1328 1327 1327 1325 1321 1319 1318 1318 1319 1320 1323 1325 1327 1329 1331 1333 1335 1336 1337 1338 1339 1340 1342 1344 1345 1346 1347 1348 1349 1351 1352 1354 1356 1358 1360 1362 1364 1366 1368 1370 1372
1355 1354 1352 1351 1347 1343 1340 1339 1338 1335 1332 1329 1326 1324 1324 1325 1323 1320 1318 1317 1318 1319 1320 1322 1324 1325 1327 1329 1331 1332 1334 1336 1337 1338 1339 1341 1342 1343 1344 1345 1346 1347 1349 1352 1353 1355 1357 1360 1362 1364 1366 1368 1370 1373